Location: Menands
(42.6920°N, 73.7246°W)
Time: 07:37:03
(UTC+00:00)

YAOGAN 3 - Pass Details

Date: 18 February 2026
Orbit: 596 x 598 km, 97.8° (Epoch: 8 March)

Event Time Altitude Azimuth Distance (km) Brightness Sun altitude
Rises 23:31:37 0° 156° (SSE) 2,829 7.8 -11.8°
Reaches altitude 10° 23:33:47 10° 153° (SSE) 1,931 6.9 -12.2°
Maximum altitude 23:37:55 59° 74° (ENE) 693 4.5 -13.0°
Drops below altitude 10° 23:42:04 10° 355° (N) 1,944 7.1 -13.8°
Sets 23:44:15 0° 352° (N) 2,850 8.0 -14.2°
